TimeCDT,TemperatureF,Dew PointF,Humidity,Sea Level PressureIn,VisibilityMPH,Wind Direction,Wind SpeedMPH,Gust SpeedMPH,PrecipitationIn,Events,Conditions,WindDirDegrees,DateUTC
12:53 AM,63.0,52.0,67,30.11,10.0,NE,9.2,-,N/A,,Clear,50,2012-10-09 05:53:00
1:53 AM,63.0,53.1,70,30.11,10.0,East,5.8,-,N/A,,Clear,80,2012-10-09 06:53:00
2:53 AM,60.8,53.6,77,30.09,10.0,East,4.6,-,N/A,,Partly Cloudy,80,2012-10-09 07:53:00
3:53 AM,60.1,53.1,78,30.10,10.0,East,3.5,-,N/A,,Partly Cloudy,80,2012-10-09 08:53:00
4:53 AM,59.0,53.1,81,30.10,10.0,East,3.5,-,N/A,,Partly Cloudy,90,2012-10-09 09:53:00
5:53 AM,59.0,53.1,81,30.12,10.0,East,3.5,-,N/A,,Partly Cloudy,80,2012-10-09 10:53:00
6:53 AM,57.9,53.1,84,30.12,10.0,Calm,Calm,-,N/A,,Clear,0,2012-10-09 11:53:00
7:53 AM,61.0,55.9,83,30.13,10.0,Calm,Calm,-,N/A,,Clear,0,2012-10-09 12:53:00
8:53 AM,64.9,57.0,75,30.15,10.0,NE,8.1,-,N/A,,Clear,40,2012-10-09 13:53:00
9:53 AM,66.9,57.0,70,30.16,10.0,Variable,4.6,-,N/A,,Partly Cloudy,0,2012-10-09 14:53:00
10:53 AM,69.1,57.9,68,30.16,10.0,NNE,5.8,-,N/A,,Partly Cloudy,20,2012-10-09 15:53:00
11:53 AM,71.1,59.0,66,30.14,10.0,Variable,5.8,-,N/A,,Partly Cloudy,0,2012-10-09 16:53:00
12:53 PM,72.0,57.9,61,30.12,10.0,North,4.6,-,N/A,,Partly Cloudy,360,2012-10-09 17:53:00
1:53 PM,73.9,57.9,57,30.08,10.0,North,6.9,-,N/A,,Partly Cloudy,360,2012-10-09 18:53:00
2:53 PM,73.9,57.9,57,30.07,10.0,Calm,Calm,-,N/A,,Partly Cloudy,0,2012-10-09 19:53:00
3:53 PM,75.0,57.9,55,30.05,10.0,NNW,4.6,-,N/A,,Partly Cloudy,330,2012-10-09 20:53:00
4:53 PM,75.0,57.9,55,30.04,10.0,NNE,4.6,-,N/A,,Partly Cloudy,20,2012-10-09 21:53:00
5:53 PM,73.9,59.0,59,30.04,10.0,North,3.5,-,N/A,,Partly Cloudy,360,2012-10-09 22:53:00
6:53 PM,71.1,57.0,61,30.04,10.0,East,3.5,-,N/A,,Partly Cloudy,80,2012-10-09 23:53:00
7:53 PM,71.1,57.9,63,30.05,10.0,ESE,4.6,-,N/A,,Clear,110,2012-10-10 00:53:00
8:53 PM,66.9,57.9,73,30.06,10.0,SE,5.8,-,N/A,,Clear,140,2012-10-10 01:53:00
9:53 PM,66.9,60.1,79,30.08,10.0,SE,4.6,-,N/A,,Partly Cloudy,140,2012-10-10 02:53:00
10:06 PM,68.0,60.8,78,30.07,10.0,SE,4.6,-,N/A,,Mostly Cloudy,130,2012-10-10 03:06:00
10:27 PM,66.2,60.8,83,30.07,10.0,SE,5.8,-,N/A,,Scattered Clouds,140,2012-10-10 03:27:00
10:51 PM,68.0,62.6,83,30.08,10.0,SE,4.6,-,N/A,,Mostly Cloudy,130,2012-10-10 03:51:00
10:53 PM,68.0,62.1,81,30.09,10.0,SE,4.6,-,N/A,,Mostly Cloudy,130,2012-10-10 03:53:00
11:30 PM,66.2,62.6,88,30.07,10.0,SE,5.8,-,N/A,,Partly Cloudy,130,2012-10-10 04:30:00
11:53 PM,66.9,62.1,84,30.08,10.0,SE,4.6,-,N/A,,Partly Cloudy,130,2012-10-10 04:53:00